Location: Go�ngahuizen
(53.0821°N, 5.8849°E)
Time: 01:22:11
(UTC+00:00)

Cosmos 1953 Rocket - Pass Details

Date: 09 April 2020
Orbit: 604 x 635 km, 82.5° (Epoch: 30 May)

Event Time Altitude Azimuth Distance (km) Brightness Sun altitude
Rises 19:24:15 0° 345° (NNW) 2,938 7.7 -8.9°
Reaches altitude 10° 19:26:31 10° 342° (NNW) 2,029 6.9 -9.2°
Maximum altitude 19:30:55 56° 265° (W) 762 4.4 -9.8°
Drops below altitude 10° 19:35:18 10° 187° (S) 2,019 6.0 -10.4°
Sets 19:37:34 0° 183° (S) 2,923 6.8 -10.7°
